RH
80 84 88 76 83 87 82 79 78 76 76 77 79 82 78 80 79 79 83 80 80 82
75 74 78 77 78 84 82 71 84 75 79 78 81 88 84 89 90 87 84 87 87 87
73 77 73 74 82 82 83 80 74 70 72 77 77 86 88 89 89 96 94 94 95 93
80 80 79 81 85 84 78 75 70 72 79 81 80 82 88 88 88 93 93 90 94 93
81 79 82 81 79 80 74 71 73 70 76 78 81 85 80 79 78 82 81 79 81 84
79 79 81 80 77 76 71 70 71 71 76 80 85 85 77 73 81 83 80 76 79 78
82 80 81 78 79 79 74 73 72 73 74 81 80 77 74 67 66 70 75 76 74 72
83 80 81 82 82 81 80 73 72 71 72 76 77 70 82 70 66 65 66 68 62 69
82 82 85 83 82 81 82 81 77 78 71 80 71 81 75 77 74 69 68 67 68 63
84 86 87 83 82 84 86 86 90 86 82 82 79 72 74 72 79 81 86 88 78 64
86 90 89 90 93 95 94 97 97 94 92 85 73 73 69 70 85 89 90 91 82 89
87 93 94 97 97 97 95 97 98 96 91 91 88 69 73 85 94 94 93 87 86 83
87 93 95 97 96 98 96 97 95 95 95 76 92 64 69 90 97 97 95 90 91 63
83 89 93 96 97 95 94 95 96 96 95 92 83 81 64 70 97 99 94 90 93 83
Wind_Speed
6 4 4 6 4 3 4 4 6 8 8 10 10 9 7 6 6 7 7 10 8 6
4 5 4 4 3 3 4 3 6 7 8 9 9 10 7 6 8 7 8 9 9 7
5 4 4 3 4 6 6 8 8 9 9 8 9 9 9 8 9 8 9 8 11 10
5 4 4 4 5 6 7 8 9 9 8 8 9 9 7 8 10 11 11 11 11 12
6 5 5 6 6 8 8 9 7 8 8 8 9 8 8 10 10 11 11 11 11 12
6 6 6 7 8 10 9 9 8 8 8 8 8 7 10 10 10 10 11 10 12 12
6 7 7 7 8 9 8 8 8 8 7 8 8 9 10 10 10 10 10 10 10 12
7 8 8 8 9 8 8 8 8 8 8 7 8 7 9 10 10 10 10 11 11 13
8 8 8 8 9 8 7 7 8 8 9 8 8 17 18 10 8 10 11 11 10 11
8 8 8 8 8 8 7 7 7 7 6 9 9 16 18 15 7 8 8 8 9 11
8 8 8 8 7 6 5 4 3 5 6 6 10 16 17 16 8 7 8 8 9 8
9 8 8 6 5 6 7 4 4 3 6 7 5 17 16 9 5 6 7 8 6 7
9 8 7 6 7 3 4 4 4 5 5 13 6 17 17 10 3 5 4 6 7 21
8 8 6 5 4 9 8 5 3 3 4 6 7 7 15 14 3 2 3 5 5 7
Wind_Direction
67 71 58 56 44 24 12 24 19 26 23 22 17 6 20 22 23 21 23 13 3 349
90 88 78 68 65 32 348 22 52 36 27 25 23 10 28 25 23 35 22 14 3 2
118 113 107 97 80 50 6 41 43 35 25 16 24 25 31 37 27 32 33 21 5 3
142 127 97 67 56 53 58 59 56 35 22 12 24 22 44 53 38 31 47 23 7 3
101 90 82 67 62 59 69 52 52 45 30 20 24 20 43 45 38 41 38 28 15 8
95 91 82 71 65 60 80 64 46 40 34 21 18 24 69 53 45 44 40 27 21 16
94 93 85 79 71 66 76 64 54 40 28 23 38 52 67 58 53 49 44 32 27 31
102 94 89 81 74 71 69 72 54 48 36 32 39 69 65 61 52 48 45 39 33 34
102 101 98 91 82 77 71 66 60 46 49 43 56 71 72 71 59 49 42 41 31 40
113 110 103 100 96 91 80 72 54 41 40 58 61 70 71 68 57 49 35 25 29 36
120 115 110 106 109 100 88 66 49 36 28 49 66 72 72 66 49 38 30 23 26 20
127 120 115 119 128 110 102 65 40 19 37 38 53 72 73 54 33 25 17 23 14 38
127 124 126 139 135 115 95 89 70 39 18 45 13 81 73 61 31 28 15 14 7 42
129 131 139 150 115 130 114 96 65 54 15 23 31 55 80 74 58 59 27 35 22 39